WXM80 ListenWXM80 Stop

You find our weather info also at:

UK Metoffice

WeatherCloud

Weather Underground

Northeastern Weather Network

AWEKAS

Citizen Weather Observer Program (CWOP)

HAMweather, WeatherForYou, PWS Weather


Weather Underground History page Text

Daily Summary for September 17, 2016 Units:  English    Metric   Both
« Previous Day
Next Day »
Daily Weekly Monthly Yearly Custom
  High: Low: Average:
Temperature: 79.9 °F 52.4 °F 65.9 °F
Dew Point: 66.9 °F 50.4 °F 59.5 °F
Humidity: 98 % 53 % 81 %
Wind Speed: 6.3 mph 0.0 mph 0.9 mph
Wind Gust: 12.0 mph - -
Wind:- - South
Pressure: 30.26 in 30.07 in -
Precipitation: 0.00 in    
Historical Graphs
 
 
Tabular Data for September 17, 2016
Time Temperature Dew Point Pressure Wind Wind Speed Wind Gust Humidity Rainfall Rate (Hourly)
00:01 57.2 °F 53.0 °F 30.26 in Calm     86 % 0.00 in
00:06 57.1 °F 52.6 °F 30.26 in Calm     85 % 0.00 in
00:11 57.0 °F 52.9 °F 30.26 in Calm     86 % 0.00 in
00:16 56.9 °F 52.8 °F 30.26 in SSE 0.1 mph 1.2 mph 86 % 0.00 in
00:21 56.8 °F 52.7 °F 30.26 in Calm     86 % 0.00 in
00:26 56.7 °F 52.6 °F 30.26 in Calm   1.2 mph 86 % 0.00 in
00:31 56.6 °F 52.8 °F 30.26 in Calm     87 % 0.00 in
00:36 56.5 °F 52.7 °F 30.26 in SSE 0.4 mph 1.2 mph 87 % 0.00 in
00:41 56.4 °F 52.9 °F 30.26 in SSW 0.4 mph 2.3 mph 88 % 0.00 in
00:46 56.3 °F 52.8 °F 30.26 in Calm     88 % 0.00 in
00:52 56.2 °F 52.7 °F 30.26 in Calm     88 % 0.00 in
00:57 56.2 °F 52.7 °F 30.26 in Calm     88 % 0.00 in
01:02 56.1 °F 52.6 °F 30.25 in Calm     88 % 0.00 in
01:07 56.0 °F 52.8 °F 30.25 in Calm     89 % 0.00 in
01:12 56.0 °F 52.8 °F 30.25 in Calm     89 % 0.00 in
01:17 55.9 °F 52.7 °F 30.25 in Calm     89 % 0.00 in
01:22 55.9 °F 52.7 °F 30.25 in Calm     89 % 0.00 in
01:27 55.8 °F 52.6 °F 30.25 in Calm     89 % 0.00 in
01:32 55.7 °F 52.5 °F 30.25 in Calm     89 % 0.00 in
01:37 55.7 °F 52.5 °F 30.25 in Calm     89 % 0.00 in
01:43 55.6 °F 52.4 °F 30.25 in Calm     89 % 0.00 in
01:48 55.6 °F 52.7 °F 30.25 in Calm     90 % 0.00 in
01:53 55.5 °F 52.6 °F 30.25 in Calm     90 % 0.00 in
01:58 55.5 °F 52.6 °F 30.25 in Calm     90 % 0.00 in
02:03 55.4 °F 52.5 °F 30.25 in Calm     90 % 0.00 in
02:08 55.3 °F 52.4 °F 30.25 in Calm     90 % 0.00 in
02:13 55.3 °F 52.4 °F 30.24 in Calm     90 % 0.00 in
02:18 55.2 °F 52.3 °F 30.24 in Calm     90 % 0.00 in
02:23 55.1 °F 52.2 °F 30.24 in Calm     90 % 0.00 in
02:28 55.0 °F 52.1 °F 30.24 in Calm     90 % 0.00 in
02:34 54.9 °F 52.0 °F 30.24 in Calm     90 % 0.00 in
02:39 54.8 °F 51.9 °F 30.23 in Calm     90 % 0.00 in
02:44 54.7 °F 51.8 °F 30.24 in Calm     90 % 0.00 in
02:49 54.6 °F 51.7 °F 30.24 in Calm     90 % 0.00 in
02:54 54.5 °F 51.6 °F 30.23 in Calm     90 % 0.00 in
02:59 54.4 °F 51.5 °F 30.23 in Calm     90 % 0.00 in
03:04 54.3 °F 51.4 °F 30.23 in Calm     90 % 0.00 in
03:05 54.3 °F 51.4 °F 30.23 in Calm     90 % 0.00 in
03:11 54.2 °F 51.3 °F 30.23 in Calm     90 % 0.00 in
03:16 54.1 °F 51.2 °F 30.23 in Calm     90 % 0.00 in
03:21 54.1 °F 51.5 °F 30.23 in Calm     91 % 0.00 in
03:26 54.0 °F 51.4 °F 30.23 in Calm     91 % 0.00 in
03:31 53.9 °F 51.3 °F 30.22 in Calm     91 % 0.00 in
03:36 53.8 °F 51.2 °F 30.22 in Calm     91 % 0.00 in
03:41 53.8 °F 51.2 °F 30.23 in Calm     91 % 0.00 in
03:46 53.7 °F 51.1 °F 30.23 in Calm     91 % 0.00 in
03:51 53.6 °F 51.0 °F 30.22 in Calm   1.0 mph 91 % 0.00 in
03:56 53.5 °F 50.9 °F 30.22 in Calm     91 % 0.00 in
04:01 53.5 °F 50.9 °F 30.22 in Calm     91 % 0.00 in
04:06 53.4 °F 51.1 °F 30.22 in Calm     92 % 0.00 in
04:11 53.3 °F 51.0 °F 30.23 in Calm     92 % 0.00 in
04:21 53.2 °F 50.9 °F 30.23 in Calm     92 % 0.00 in
04:26 53.2 °F 50.9 °F 30.23 in Calm     92 % 0.00 in
04:31 53.2 °F 50.9 °F 30.23 in Calm     92 % 0.00 in
04:36 53.2 °F 50.9 °F 30.23 in Calm     92 % 0.00 in
04:41 53.1 °F 51.1 °F 30.23 in Calm     93 % 0.00 in
04:47 53.1 °F 51.1 °F 30.23 in Calm     93 % 0.00 in
04:52 53.1 °F 51.1 °F 30.23 in Calm     93 % 0.00 in
05:02 53.1 °F 51.1 °F 30.23 in Calm     93 % 0.00 in
05:07 53.0 °F 51.0 °F 30.23 in Calm     93 % 0.00 in
05:12 53.0 °F 51.0 °F 30.23 in Calm     93 % 0.00 in
05:17 52.9 °F 50.9 °F 30.23 in Calm     93 % 0.00 in
05:22 52.9 °F 50.9 °F 30.23 in Calm     93 % 0.00 in
05:27 52.8 °F 50.8 °F 30.23 in Calm     93 % 0.00 in
05:32 52.7 °F 50.7 °F 30.23 in Calm     93 % 0.00 in
05:38 52.7 °F 50.7 °F 30.23 in Calm     93 % 0.00 in
05:43 52.6 °F 50.6 °F 30.23 in Calm     93 % 0.00 in
05:53 52.6 °F 50.6 °F 30.23 in Calm     93 % 0.00 in
05:58 52.5 °F 50.5 °F 30.23 in Calm     93 % 0.00 in
06:03 52.4 °F 50.4 °F 30.24 in Calm     93 % 0.00 in
06:08 52.4 °F 50.4 °F 30.24 in Calm     93 % 0.00 in
06:13 52.4 °F 50.7 °F 30.24 in SSW 0.1 mph 1.2 mph 94 % 0.00 in
06:18 52.4 °F 50.7 °F 30.24 in Calm     94 % 0.00 in
06:23 52.4 °F 50.7 °F 30.24 in Calm     94 % 0.00 in
06:29 52.5 °F 50.8 °F 30.24 in Calm     94 % 0.00 in
06:34 52.5 °F 50.8 °F 30.24 in Calm     94 % 0.00 in
06:39 52.5 °F 50.8 °F 30.24 in Calm     94 % 0.00 in
06:49 52.5 °F 50.8 °F 30.24 in Calm     94 % 0.00 in
06:54 52.4 °F 50.7 °F 30.24 in Calm     94 % 0.00 in
06:59 52.5 °F 51.1 °F 30.24 in Calm     95 % 0.00 in
07:04 52.5 °F 51.1 °F 30.24 in Calm     95 % 0.00 in
07:09 52.6 °F 51.2 °F 30.24 in Calm     95 % 0.00 in
07:14 52.8 °F 51.4 °F 30.24 in Calm     95 % 0.00 in
07:19 52.9 °F 51.5 °F 30.24 in Calm     95 % 0.00 in
07:24 53.0 °F 51.9 °F 30.24 in Calm     96 % 0.00 in
07:29 53.2 °F 52.1 °F 30.24 in Calm     96 % 0.00 in
07:35 53.3 °F 52.2 °F 30.24 in Calm     96 % 0.00 in
07:40 53.5 °F 52.4 °F 30.24 in Calm     96 % 0.00 in
07:45 53.9 °F 52.8 °F 30.24 in Calm     96 % 0.00 in
07:50 54.2 °F 53.4 °F 30.24 in Calm     97 % 0.00 in
07:55 54.7 °F 53.9 °F 30.24 in Calm     97 % 0.00 in
08:00 55.0 °F 54.2 °F 30.23 in SSW 0.1 mph 1.2 mph 97 % 0.00 in
08:05 55.4 °F 54.6 °F 30.23 in SSW 0.1 mph 1.0 mph 97 % 0.00 in
08:10 56.1 °F 55.3 °F 30.23 in Calm   1.2 mph 97 % 0.00 in
08:15 56.5 °F 55.7 °F 30.22 in Calm     97 % 0.00 in
08:20 56.8 °F 56.0 °F 30.23 in Calm     97 % 0.00 in
08:25 57.2 °F 56.4 °F 30.23 in Calm     97 % 0.00 in
08:30 57.5 °F 56.7 °F 30.23 in Calm     97 % 0.00 in
08:35 57.9 °F 57.3 °F 30.23 in Calm   1.2 mph 98 % 0.00 in
08:41 58.2 °F 57.4 °F 30.23 in SSW 1.0 mph 3.0 mph 97 % 0.00 in
08:46 58.6 °F 57.7 °F 30.23 in Calm   2.0 mph 97 % 0.00 in
08:51 58.9 °F 58.1 °F 30.23 in Calm   2.0 mph 97 % 0.00 in
08:56 59.3 °F 58.4 °F 30.23 in Calm   1.0 mph 97 % 0.00 in
09:01 59.7 °F 58.8 °F 30.23 in SSW 0.2 mph 1.2 mph 97 % 0.00 in
09:06 60.1 °F 59.2 °F 30.22 in SSW 0.3 mph 1.2 mph 97 % 0.00 in
09:11 60.4 °F 59.3 °F 30.22 in Calm   1.2 mph 96 % 0.00 in
09:16 60.8 °F 59.4 °F 30.23 in SE 1.2 mph 3.0 mph 95 % 0.00 in
09:21 61.3 °F 59.3 °F 30.23 in SE 0.3 mph 2.3 mph 93 % 0.00 in
09:26 62.0 °F 59.3 °F 30.24 in SE 1.2 mph 3.5 mph 91 % 0.00 in
09:31 62.7 °F 59.4 °F 30.23 in WSW 0.2 mph 1.2 mph 89 % 0.00 in
09:36 63.4 °F 59.5 °F 30.24 in WSW 0.1 mph 1.2 mph 87 % 0.00 in
09:41 63.9 °F 59.6 °F 30.24 in WSW 0.6 mph 3.5 mph 86 % 0.00 in
09:52 64.8 °F 60.2 °F 30.24 in WSW 1.5 mph 3.5 mph 85 % 0.00 in
09:57 65.1 °F 60.1 °F 30.24 in SE 1.3 mph 4.6 mph 84 % 0.00 in
10:02 65.8 °F 59.8 °F 30.24 in SW 1.0 mph 3.5 mph 81 % 0.00 in
10:07 66.5 °F 60.1 °F 30.24 in SE 0.2 mph 2.3 mph 80 % 0.00 in
10:12 67.0 °F 59.9 °F 30.24 in SE 2.7 mph 3.5 mph 78 % 0.00 in
10:22 68.0 °F 60.5 °F 30.24 in SE 0.8 mph 4.6 mph 77 % 0.00 in
10:27 68.5 °F 60.3 °F 30.23 in SW 0.1 mph 3.5 mph 75 % 0.00 in
10:32 68.8 °F 60.6 °F 30.23 in SSE 1.4 mph 1.4 mph 75 % 0.00 in
10:37 69.2 °F 59.8 °F 30.24 in SW 3.9 mph 5.0 mph 72 % 0.00 in
10:43 69.5 °F 60.5 °F 30.23 in SE 0.1 mph 2.3 mph 73 % 0.00 in
10:48 69.9 °F 59.7 °F 30.23 in SE 4.6 mph 6.9 mph 70 % 0.00 in
10:53 70.3 °F 59.6 °F 30.22 in SE 0.8 mph 2.3 mph 69 % 0.00 in
10:58 70.5 °F 59.8 °F 30.22 in NW 0.6 mph 2.3 mph 69 % 0.00 in
11:03 70.7 °F 60.0 °F 30.22 in SSE 1.5 mph 3.5 mph 69 % 0.00 in
11:08 71.0 °F 60.3 °F 30.22 in South 0.4 mph 2.3 mph 69 % 0.00 in
11:13 71.6 °F 60.9 °F 30.22 in SW 4.0 mph 6.9 mph 69 % 0.00 in
11:18 72.3 °F 60.7 °F 30.22 in SE 1.0 mph 3.5 mph 67 % 0.00 in
11:23 73.0 °F 61.4 °F 30.21 in SE 0.1 mph 3.5 mph 67 % 0.00 in
11:28 73.5 °F 63.1 °F 30.21 in West 2.2 mph 6.0 mph 70 % 0.00 in
11:34 74.4 °F 62.7 °F 30.21 in SW 1.3 mph 3.5 mph 67 % 0.00 in
11:39 74.9 °F 62.3 °F 30.21 in SE 0.4 mph 5.8 mph 65 % 0.00 in
11:44 75.5 °F 62.0 °F 30.21 in WSW 1.2 mph 3.5 mph 63 % 0.00 in
11:49 75.8 °F 61.8 °F 30.20 in WSW 1.9 mph 3.5 mph 62 % 0.00 in
11:54 76.3 °F 63.2 °F 30.20 in SE 0.7 mph 2.3 mph 64 % 0.00 in
11:59 76.8 °F 63.2 °F 30.20 in SW 1.7 mph 3.5 mph 63 % 0.00 in
12:04 77.5 °F 62.0 °F 30.20 in SE 1.5 mph 4.6 mph 59 % 0.00 in
12:05 77.4 °F 61.9 °F 30.20 in SE 2.3 mph 3.5 mph 59 % 0.00 in
12:10 77.6 °F 62.1 °F 30.20 in SE 0.5 mph 3.5 mph 59 % 0.00 in
12:15 77.8 °F 62.8 °F 30.20 in South 0.3 mph 3.5 mph 60 % 0.00 in
12:20 77.7 °F 60.8 °F 30.19 in SE 1.6 mph 8.1 mph 56 % 0.00 in
12:25 77.6 °F 60.7 °F 30.19 in SSE 2.8 mph 9.2 mph 56 % 0.00 in
12:31 78.0 °F 63.0 °F 30.19 in Calm   4.0 mph 60 % 0.00 in
12:36 78.8 °F 61.8 °F 30.19 in SW 1.0 mph 4.0 mph 56 % 0.00 in
12:41 79.3 °F 61.7 °F 30.18 in South 2.0 mph 7.0 mph 55 % 0.00 in
12:46 79.0 °F 64.4 °F 30.18 in SSE 2.0 mph 12.0 mph 61 % 0.00 in
12:51 79.7 °F 63.6 °F 30.18 in SSE 1.0 mph 5.0 mph 58 % 0.00 in
12:56 79.6 °F 61.0 °F 30.18 in SE 5.0 mph 7.0 mph 53 % 0.00 in
13:01 79.1 °F 62.6 °F 30.18 in SE 0.6 mph 8.1 mph 57 % 0.00 in
13:06 78.8 °F 62.2 °F 30.18 in South 2.0 mph 9.0 mph 57 % 0.00 in
13:11 78.7 °F 61.7 °F 30.18 in SSW 1.0 mph 8.0 mph 56 % 0.00 in
13:16 78.6 °F 63.1 °F 30.17 in SSE 3.0 mph 7.0 mph 59 % 0.00 in
13:21 79.1 °F 63.5 °F 30.17 in SE 1.0 mph 4.0 mph 59 % 0.00 in
13:25 79.0 °F 62.9 °F 30.17 in SE 3.0 mph 12.0 mph 58 % 0.00 in
13:31 79.4 °F 63.8 °F 30.17 in SSE 2.0 mph 7.0 mph 59 % 0.00 in
13:36 79.9 °F 63.3 °F 30.17 in SSW 3.0 mph 8.0 mph 57 % 0.00 in
13:41 79.1 °F 63.1 °F 30.16 in South 3.0 mph 6.0 mph 58 % 0.00 in
13:46 79.2 °F 62.7 °F 30.16 in South 2.0 mph 6.0 mph 57 % 0.00 in
13:50 79.5 °F 63.9 °F 30.16 in SE 1.0 mph 2.3 mph 59 % 0.00 in
13:55 79.6 °F 64.0 °F 30.16 in SSW 2.0 mph 8.0 mph 59 % 0.00 in
14:01 79.2 °F 63.1 °F 30.16 in SE 1.5 mph 3.5 mph 58 % 0.00 in
14:06 78.4 °F 62.4 °F 30.15 in SSE 5.0 mph 8.1 mph 58 % 0.00 in
14:11 77.9 °F 63.8 °F 30.15 in SW 3.2 mph 3.5 mph 62 % 0.00 in
14:16 77.9 °F 63.4 °F 30.15 in South 0.9 mph 3.5 mph 61 % 0.00 in
14:26 78.7 °F 64.6 °F 30.14 in SW 2.3 mph 11.5 mph 62 % 0.00 in
14:31 79.0 °F 64.4 °F 30.14 in SE 3.0 mph 6.0 mph 61 % 0.00 in
14:36 79.1 °F 64.0 °F 30.14 in SSE 2.2 mph 3.5 mph 60 % 0.00 in
14:41 78.8 °F 62.8 °F 30.14 in South 1.0 mph 2.3 mph 58 % 0.00 in
14:46 78.1 °F 63.1 °F 30.14 in SE 3.1 mph 5.0 mph 60 % 0.00 in
14:51 77.7 °F 64.1 °F 30.14 in SSE 1.5 mph 5.8 mph 63 % 0.00 in
14:56 77.4 °F 63.4 °F 30.13 in SE 0.6 mph 4.6 mph 62 % 0.00 in
15:01 77.5 °F 63.5 °F 30.14 in SSE 0.9 mph 3.5 mph 62 % 0.00 in
15:07 77.6 °F 63.5 °F 30.14 in SE 2.1 mph 6.0 mph 62 % 0.00 in
15:12 77.3 °F 63.3 °F 30.14 in WSW 1.9 mph 4.6 mph 62 % 0.00 in
15:17 77.2 °F 64.1 °F 30.14 in South 1.1 mph 6.9 mph 64 % 0.00 in
15:22 77.5 °F 64.8 °F 30.13 in Calm   1.2 mph 65 % 0.00 in
15:27 77.7 °F 63.2 °F 30.13 in SE 6.3 mph 10.4 mph 61 % 0.00 in
15:32 77.0 °F 63.4 °F 30.13 in SE 1.2 mph 3.0 mph 63 % 0.00 in
15:37 77.0 °F 63.9 °F 30.12 in SSE 0.6 mph 3.5 mph 64 % 0.00 in
15:42 76.9 °F 63.8 °F 30.12 in SE 0.5 mph 3.5 mph 64 % 0.00 in
15:47 77.0 °F 63.4 °F 30.12 in SE 1.7 mph 4.0 mph 63 % 0.00 in
15:52 77.0 °F 63.9 °F 30.12 in SSE 2.8 mph 5.8 mph 64 % 0.00 in
15:58 76.9 °F 63.3 °F 30.12 in SSW 1.4 mph 3.5 mph 63 % 0.00 in
16:03 76.4 °F 63.3 °F 30.12 in South 0.8 mph 5.0 mph 64 % 0.00 in
16:08 76.1 °F 63.5 °F 30.12 in SE 0.8 mph 2.3 mph 65 % 0.00 in
16:13 76.2 °F 64.0 °F 30.12 in SSW 2.2 mph 4.6 mph 66 % 0.00 in
16:18 76.3 °F 64.5 °F 30.12 in SW 2.3 mph 8.1 mph 67 % 0.00 in
16:23 76.6 °F 64.0 °F 30.12 in SE 2.4 mph 5.8 mph 65 % 0.00 in
16:28 76.5 °F 63.9 °F 30.12 in SSW 2.8 mph 5.8 mph 65 % 0.00 in
16:33 76.7 °F 64.0 °F 30.11 in SSW 1.9 mph 2.3 mph 65 % 0.00 in
16:38 76.8 °F 64.1 °F 30.11 in SW 0.7 mph 3.5 mph 65 % 0.00 in
16:43 76.9 °F 64.2 °F 30.11 in SSW 1.0 mph 2.0 mph 65 % 0.00 in
16:49 76.9 °F 63.8 °F 30.12 in SW 1.6 mph 5.8 mph 64 % 0.00 in
16:54 76.9 °F 63.8 °F 30.11 in SSW 2.2 mph 5.8 mph 64 % 0.00 in
16:59 76.6 °F 63.1 °F 30.12 in SSW 2.0 mph 4.6 mph 63 % 0.00 in
17:04 76.2 °F 64.0 °F 30.11 in SSW 2.4 mph 5.0 mph 66 % 0.00 in
17:09 75.8 °F 64.5 °F 30.11 in SSW 1.8 mph 3.5 mph 68 % 0.00 in
17:14 75.5 °F 64.2 °F 30.11 in SSW 1.1 mph 4.0 mph 68 % 0.00 in
17:24 75.2 °F 64.3 °F 30.11 in SW 1.8 mph 4.0 mph 69 % 0.00 in
17:29 74.9 °F 64.0 °F 30.11 in SSW 3.1 mph 3.5 mph 69 % 0.00 in
17:34 74.6 °F 64.6 °F 30.11 in SSE 2.7 mph 9.2 mph 71 % 0.00 in
17:40 74.1 °F 64.5 °F 30.11 in SE 2.4 mph 3.5 mph 72 % 0.00 in
17:45 73.8 °F 64.6 °F 30.10 in SSE 0.3 mph 4.6 mph 73 % 0.00 in
17:50 73.6 °F 64.8 °F 30.11 in SSW 1.5 mph 4.0 mph 74 % 0.00 in
17:55 73.4 °F 65.0 °F 30.11 in South 1.3 mph 8.1 mph 75 % 0.00 in
18:00 73.2 °F 64.8 °F 30.11 in West 1.6 mph 3.5 mph 75 % 0.00 in
18:05 73.1 °F 65.1 °F 30.10 in SSE 1.5 mph 3.5 mph 76 % 0.00 in
18:10 73.0 °F 65.0 °F 30.11 in SE 2.1 mph 6.0 mph 76 % 0.00 in
18:15 72.8 °F 64.8 °F 30.11 in South 0.5 mph 2.3 mph 76 % 0.00 in
18:20 72.6 °F 65.0 °F 30.10 in SSW 1.8 mph 4.6 mph 77 % 0.00 in
18:25 72.5 °F 64.9 °F 30.10 in SSE 0.9 mph 3.5 mph 77 % 0.00 in
18:30 72.3 °F 65.1 °F 30.10 in SSE 5.0 mph 12.0 mph 78 % 0.00 in
18:35 72.1 °F 65.2 °F 30.10 in SSE 2.0 mph 12.0 mph 79 % 0.00 in
18:40 72.0 °F 65.1 °F 30.10 in SE 4.0 mph 6.9 mph 79 % 0.00 in
18:45 71.8 °F 65.3 °F 30.10 in Calm   3.0 mph 80 % 0.00 in
18:51 71.7 °F 65.2 °F 30.10 in SE 1.0 mph 4.0 mph 80 % 0.00 in
18:56 71.6 °F 65.5 °F 30.10 in SSE 2.0 mph 4.0 mph 81 % 0.00 in
19:01 71.3 °F 65.2 °F 30.10 in South 1.2 mph 4.6 mph 81 % 0.00 in
19:06 71.2 °F 65.4 °F 30.09 in SE 0.5 mph 2.3 mph 82 % 0.00 in
19:11 71.1 °F 65.3 °F 30.09 in SSE 1.0 mph 4.0 mph 82 % 0.00 in
19:16 70.8 °F 65.4 °F 30.10 in SE 0.5 mph 2.3 mph 83 % 0.00 in
19:21 70.7 °F 65.3 °F 30.10 in SE 1.7 mph 4.6 mph 83 % 0.00 in
19:26 70.5 °F 65.4 °F 30.10 in SSE 0.4 mph 4.6 mph 84 % 0.00 in
19:31 70.4 °F 65.3 °F 30.09 in SSE 0.2 mph 1.2 mph 84 % 0.00 in
19:36 70.3 °F 65.6 °F 30.10 in SE 1.0 mph 4.0 mph 85 % 0.00 in
19:41 70.1 °F 65.4 °F 30.10 in SE 0.9 mph 1.2 mph 85 % 0.00 in
19:46 70.0 °F 65.6 °F 30.10 in SE 2.4 mph 6.0 mph 86 % 0.00 in
19:52 69.9 °F 65.5 °F 30.10 in SE 1.0 mph 4.6 mph 86 % 0.00 in
19:57 69.9 °F 65.5 °F 30.10 in South 0.8 mph 2.3 mph 86 % 0.00 in
20:02 69.8 °F 65.8 °F 30.10 in SE 3.0 mph 5.0 mph 87 % 0.00 in
20:07 69.7 °F 65.7 °F 30.10 in SSW 1.1 mph 3.5 mph 87 % 0.00 in
20:12 69.7 °F 65.7 °F 30.10 in SSE 1.4 mph 4.6 mph 87 % 0.00 in
20:17 69.6 °F 65.6 °F 30.10 in SSE 0.9 mph 3.5 mph 87 % 0.00 in
20:22 69.5 °F 65.8 °F 30.10 in SSE 1.2 mph 3.5 mph 88 % 0.00 in
20:27 69.4 °F 65.7 °F 30.10 in SSE 2.2 mph 3.5 mph 88 % 0.00 in
20:32 69.4 °F 65.7 °F 30.10 in SSE 0.2 mph 3.5 mph 88 % 0.00 in
20:37 69.4 °F 65.7 °F 30.10 in South 3.1 mph 4.6 mph 88 % 0.00 in
20:43 69.3 °F 65.9 °F 30.10 in SSE 1.5 mph 5.0 mph 89 % 0.00 in
20:48 69.3 °F 65.9 °F 30.10 in SE 0.8 mph 3.5 mph 89 % 0.00 in
20:53 69.3 °F 65.9 °F 30.10 in SSW 1.3 mph 3.5 mph 89 % 0.00 in
20:58 69.4 °F 66.0 °F 30.10 in South 2.1 mph 3.5 mph 89 % 0.00 in
21:03 69.3 °F 65.9 °F 30.10 in SE 1.2 mph 3.0 mph 89 % 0.00 in
21:08 69.3 °F 65.9 °F 30.10 in SSW 1.3 mph 4.6 mph 89 % 0.00 in
21:13 69.3 °F 66.2 °F 30.09 in South 1.3 mph 4.0 mph 90 % 0.00 in
21:18 69.3 °F 66.2 °F 30.09 in SSE 1.7 mph 4.0 mph 90 % 0.00 in
21:23 69.3 °F 66.2 °F 30.10 in South 0.8 mph 3.5 mph 90 % 0.00 in
21:28 69.3 °F 66.2 °F 30.09 in SE 1.8 mph 6.0 mph 90 % 0.00 in
21:34 69.3 °F 66.2 °F 30.09 in SSW 1.4 mph 3.5 mph 90 % 0.00 in
21:39 69.3 °F 66.2 °F 30.09 in SSW 0.8 mph 4.6 mph 90 % 0.00 in
21:44 69.2 °F 66.1 °F 30.09 in West 0.6 mph 2.3 mph 90 % 0.00 in
21:49 69.2 °F 66.1 °F 30.09 in SW 1.6 mph 3.5 mph 90 % 0.00 in
21:54 69.2 °F 66.1 °F 30.09 in SW 0.5 mph 2.3 mph 90 % 0.00 in
21:59 69.2 °F 66.1 °F 30.09 in SSE 1.5 mph 3.5 mph 90 % 0.00 in
22:04 69.2 °F 66.1 °F 30.09 in SSW 0.4 mph 3.5 mph 90 % 0.00 in
22:09 69.2 °F 66.1 °F 30.09 in South 0.8 mph 3.5 mph 90 % 0.00 in
22:14 69.2 °F 66.5 °F 30.08 in SSE 1.5 mph 3.5 mph 91 % 0.00 in
22:19 69.2 °F 66.5 °F 30.09 in SSE 0.2 mph 2.3 mph 91 % 0.00 in
22:25 69.2 °F 66.5 °F 30.08 in SSE 1.1 mph 3.5 mph 91 % 0.00 in
22:30 69.2 °F 66.5 °F 30.08 in SE 1.2 mph 3.5 mph 91 % 0.00 in
22:35 69.3 °F 66.6 °F 30.08 in SSE 0.9 mph 3.5 mph 91 % 0.00 in
22:40 69.2 °F 66.5 °F 30.08 in West 0.4 mph 1.2 mph 91 % 0.00 in
22:45 69.2 °F 66.5 °F 30.08 in SSE 0.5 mph 2.3 mph 91 % 0.00 in
22:50 69.3 °F 66.6 °F 30.07 in SSW 0.8 mph 3.5 mph 91 % 0.00 in
22:55 69.3 °F 66.6 °F 30.08 in SSW 1.3 mph 4.0 mph 91 % 0.00 in
23:00 69.3 °F 66.6 °F 30.07 in SSE 0.8 mph 5.0 mph 91 % 0.00 in
23:05 69.3 °F 66.6 °F 30.08 in SSW 1.0 mph 3.5 mph 91 % 0.00 in
23:11 69.3 °F 66.6 °F 30.08 in SSW 1.2 mph 4.0 mph 91 % 0.00 in
23:16 69.3 °F 66.9 °F 30.08 in South 1.0 mph 4.0 mph 92 % 0.00 in
23:21 69.3 °F 66.9 °F 30.08 in Calm   2.0 mph 92 % 0.00 in
23:26 69.3 °F 66.9 °F 30.07 in South 1.0 mph 3.0 mph 92 % 0.00 in
23:31 69.3 °F 66.9 °F 30.07 in Calm   2.0 mph 92 % 0.00 in
23:41 69.3 °F 66.9 °F 30.07 in SSW 1.6 mph 2.3 mph 92 % 0.00 in
23:46 69.3 °F 66.9 °F 30.07 in SSE 1.0 mph 3.0 mph 92 % 0.00 in
23:51 69.3 °F 66.9 °F 30.07 in Calm   4.0 mph 92 % 0.00 in
23:56 69.3 °F 66.9 °F 30.07 in SSE 0.9 mph 3.0 mph 92 % 0.00 in
Crab Meadow Weather
Compliments of Weather Underground - 3 mb

Script developed by  Jim McMurry - jmcmurry@mwt.net Adapted for the template by  Wim van der Kuil - Leuven-Template.eu

Astronomy: The Sun is around 4.5 billion years old.